Year,Month,Day,Hour,Minute,Value (Times are PST for windgust in km/hr)
2006,12,13,00,00,20.90
2006,12,13,00,01,11.30
2006,12,13,00,02,8.10
2006,12,13,00,03,4.80
2006,12,13,00,04,8.10
2006,12,13,00,05,11.30
2006,12,13,00,06,9.60
2006,12,13,00,07,19.30
2006,12,13,00,08,16.10
2006,12,13,00,09,6.40
2006,12,13,00,10,4.80
2006,12,13,00,11,4.80
2006,12,13,00,12,6.40
2006,12,13,00,13,3.20
2006,12,13,00,14,6.40
2006,12,13,00,15,9.60
2006,12,13,00,16,16.10
2006,12,13,00,17,8.10
2006,12,13,00,18,9.60
2006,12,13,00,19,9.60
2006,12,13,00,20,24.20
2006,12,13,00,21,27.40
2006,12,13,00,22,24.20
2006,12,13,00,23,24.20
2006,12,13,00,24,4.80
2006,12,13,00,25,11.30
2006,12,13,00,26,17.70
2006,12,13,00,27,3.20
2006,12,13,00,28,8.10
2006,12,13,00,29,8.10
2006,12,13,00,30,4.80
2006,12,13,00,31,17.70
2006,12,13,00,32,16.10
2006,12,13,00,33,14.50
2006,12,13,00,34,9.60
2006,12,13,00,35,11.30
2006,12,13,00,36,3.20
2006,12,13,00,37,8.10
2006,12,13,00,38,9.60
2006,12,13,00,39,30.60
2006,12,13,00,40,6.40
2006,12,13,00,41,6.40
2006,12,13,00,42,16.10
2006,12,13,00,43,11.30
2006,12,13,00,44,6.40
2006,12,13,00,45,8.10
2006,12,13,00,46,6.40
2006,12,13,00,47,6.40
2006,12,13,00,48,9.60
2006,12,13,00,49,6.40
2006,12,13,00,50,8.10
2006,12,13,00,51,8.10
2006,12,13,00,52,6.40
2006,12,13,00,53,4.80
2006,12,13,00,54,3.20
2006,12,13,00,55,4.80
2006,12,13,00,56,6.40
2006,12,13,00,57,6.40
2006,12,13,00,58,1.60
2006,12,13,00,59,11.30
2006,12,13,01,00,9.60
2006,12,13,01,01,3.20
2006,12,13,01,02,6.40
2006,12,13,01,03,6.40
2006,12,13,01,04,4.80
2006,12,13,01,05,8.10
2006,12,13,01,06,8.10
2006,12,13,01,07,8.10
2006,12,13,01,08,4.80
2006,12,13,01,09,9.60
2006,12,13,01,10,8.10
2006,12,13,01,11,6.40
2006,12,13,01,12,3.20
2006,12,13,01,13,3.20
2006,12,13,01,14,6.40
2006,12,13,01,15,8.10
2006,12,13,01,16,6.40
2006,12,13,01,17,6.40
2006,12,13,01,18,4.80
2006,12,13,01,19,4.80
2006,12,13,01,20,3.20
2006,12,13,01,21,3.20
2006,12,13,01,22,4.80
2006,12,13,01,23,4.80
2006,12,13,01,24,9.60
2006,12,13,01,25,4.80
2006,12,13,01,26,3.20
2006,12,13,01,27,8.10
2006,12,13,01,28,8.10
2006,12,13,01,29,8.10
2006,12,13,01,30,4.80
2006,12,13,01,31,8.10
2006,12,13,01,32,3.20
2006,12,13,01,33,9.60
2006,12,13,01,34,9.60
2006,12,13,01,35,1.60
2006,12,13,01,36,9.60
2006,12,13,01,37,12.90
2006,12,13,01,38,8.10
2006,12,13,01,39,12.90
2006,12,13,01,40,4.80
2006,12,13,01,41,4.80
2006,12,13,01,42,4.80
2006,12,13,01,43,20.90
2006,12,13,01,44,16.10
2006,12,13,01,45,9.60
2006,12,13,01,46,11.30
2006,12,13,01,47,6.40
2006,12,13,01,48,8.10
2006,12,13,01,49,6.40
2006,12,13,01,50,6.40
2006,12,13,01,51,6.40
2006,12,13,01,52,14.50
2006,12,13,01,53,6.40
2006,12,13,01,54,4.80
2006,12,13,01,55,8.10
2006,12,13,01,56,6.40
2006,12,13,01,57,8.10
2006,12,13,01,58,4.80
2006,12,13,01,59,6.40
2006,12,13,02,00,6.40
2006,12,13,02,01,4.80
2006,12,13,02,02,4.80
2006,12,13,02,03,6.40
2006,12,13,02,04,9.60
2006,12,13,02,05,9.60
2006,12,13,02,06,17.70
2006,12,13,02,07,6.40
2006,12,13,02,08,9.60
2006,12,13,02,09,6.40
2006,12,13,02,10,6.40
2006,12,13,02,11,11.30
2006,12,13,02,12,4.80
2006,12,13,02,13,6.40
2006,12,13,02,14,3.20
2006,12,13,02,15,1.60
2006,12,13,02,16,0.00
2006,12,13,02,17,3.20
2006,12,13,02,18,3.20
2006,12,13,02,19,8.10
2006,12,13,02,20,6.40
2006,12,13,02,21,16.10
2006,12,13,02,22,14.50
2006,12,13,02,23,3.20
2006,12,13,02,24,8.10
2006,12,13,02,25,6.40
2006,12,13,02,26,6.40
2006,12,13,02,27,6.40
2006,12,13,02,28,6.40
2006,12,13,02,29,8.10
2006,12,13,02,30,4.80
2006,12,13,02,31,8.10
2006,12,13,02,32,11.30
2006,12,13,02,33,8.10
2006,12,13,02,34,11.30
2006,12,13,02,35,8.10
2006,12,13,02,36,11.30
2006,12,13,02,37,9.60
2006,12,13,02,38,9.60
2006,12,13,02,39,9.60
2006,12,13,02,40,6.40
2006,12,13,02,41,4.80
2006,12,13,02,42,6.40
2006,12,13,02,43,6.40
2006,12,13,02,44,8.10
2006,12,13,02,45,6.40
2006,12,13,02,46,8.10
2006,12,13,02,47,6.40
2006,12,13,02,48,8.10
2006,12,13,02,49,16.10
2006,12,13,02,50,12.90
2006,12,13,02,51,12.90
2006,12,13,02,52,8.10
2006,12,13,02,53,9.60
2006,12,13,02,54,3.20
2006,12,13,02,55,6.40
2006,12,13,02,56,20.90
2006,12,13,02,57,20.90
2006,12,13,02,58,22.50
2006,12,13,02,59,17.70
2006,12,13,03,00,11.30
2006,12,13,03,01,16.10
2006,12,13,03,02,17.70
2006,12,13,03,03,9.60
2006,12,13,03,04,19.30
2006,12,13,03,05,16.10
2006,12,13,03,06,14.50
2006,12,13,03,07,14.50
2006,12,13,03,08,11.30
2006,12,13,03,09,14.50
2006,12,13,03,10,8.10
2006,12,13,03,11,14.50
2006,12,13,03,12,17.70
2006,12,13,03,13,14.50
2006,12,13,03,14,16.10
2006,12,13,03,15,12.90
2006,12,13,03,16,16.10
2006,12,13,03,17,17.70
2006,12,13,03,18,9.60
2006,12,13,03,19,20.90
2006,12,13,03,20,20.90
2006,12,13,03,21,12.90
2006,12,13,03,22,9.60
2006,12,13,03,23,16.10
2006,12,13,03,24,20.90
2006,12,13,03,25,25.70
2006,12,13,03,26,20.90
2006,12,13,03,27,17.70
2006,12,13,03,28,27.40
2006,12,13,03,29,38.60
2006,12,13,03,30,24.20
2006,12,13,03,31,22.50
2006,12,13,03,32,16.10
2006,12,13,03,33,24.20
2006,12,13,03,34,22.50
2006,12,13,03,35,30.60
2006,12,13,03,36,27.40
2006,12,13,03,37,19.30
2006,12,13,03,38,29.00
2006,12,13,03,39,32.20
2006,12,13,03,40,33.80
2006,12,13,03,41,16.10
2006,12,13,03,42,24.20
2006,12,13,03,43,22.50
2006,12,13,03,44,20.90
2006,12,13,03,45,19.30
2006,12,13,03,46,17.70
2006,12,13,03,47,17.70
2006,12,13,03,48,17.70
2006,12,13,03,49,9.60
2006,12,13,03,50,16.10
2006,12,13,03,51,20.90
2006,12,13,03,52,17.70
2006,12,13,03,53,19.30
2006,12,13,03,54,20.90
2006,12,13,03,55,24.20
2006,12,13,03,56,17.70
2006,12,13,03,57,17.70
2006,12,13,03,58,19.30
2006,12,13,03,59,19.30
2006,12,13,04,00,14.50
2006,12,13,04,01,19.30
2006,12,13,04,02,17.70
2006,12,13,04,03,35.40
2006,12,13,04,04,27.40
2006,12,13,04,05,17.70
2006,12,13,04,06,33.80
2006,12,13,04,07,16.10
2006,12,13,04,08,27.40
2006,12,13,04,09,37.00
2006,12,13,04,10,16.10
2006,12,13,04,11,33.80
2006,12,13,04,12,27.40
2006,12,13,04,13,24.20
2006,12,13,04,14,24.20
2006,12,13,04,15,24.20
2006,12,13,04,16,16.10
2006,12,13,04,17,25.70
2006,12,13,04,18,16.10
2006,12,13,04,19,4.80
2006,12,13,04,20,17.70
2006,12,13,04,21,19.30
2006,12,13,04,22,19.30
2006,12,13,04,23,16.10
2006,12,13,04,24,11.30
2006,12,13,04,25,14.50
2006,12,13,04,26,27.40
2006,12,13,04,27,22.50
2006,12,13,04,28,33.80
2006,12,13,04,29,40.20
2006,12,13,04,30,27.40
2006,12,13,04,31,20.90
2006,12,13,04,32,29.00
2006,12,13,04,33,29.00
2006,12,13,04,34,24.20
2006,12,13,04,35,24.20
2006,12,13,04,36,35.40
2006,12,13,04,37,24.20
2006,12,13,04,38,29.00
2006,12,13,04,39,32.20
2006,12,13,04,40,54.70
2006,12,13,04,41,29.00
2006,12,13,04,42,32.20
2006,12,13,04,43,45.10
2006,12,13,04,44,38.60
2006,12,13,04,45,43.50
2006,12,13,04,46,17.70
2006,12,13,04,47,35.40
2006,12,13,04,48,37.00
2006,12,13,04,49,33.80
2006,12,13,04,50,38.60
2006,12,13,04,51,35.40
2006,12,13,04,52,43.50
2006,12,13,04,53,37.00
2006,12,13,04,54,35.40
2006,12,13,04,55,33.80
2006,12,13,04,56,25.70
2006,12,13,04,57,43.50
2006,12,13,04,58,30.60
2006,12,13,04,59,20.90
2006,12,13,05,00,22.50
2006,12,13,05,01,22.50
2006,12,13,05,02,41.80
2006,12,13,05,03,20.90
2006,12,13,05,04,20.90
2006,12,13,05,05,20.90
2006,12,13,05,06,24.20
2006,12,13,05,07,30.60
2006,12,13,05,08,20.90
2006,12,13,05,09,33.80
2006,12,13,05,10,17.70
2006,12,13,05,11,24.20
2006,12,13,05,12,19.30
2006,12,13,05,13,11.30
2006,12,13,05,14,25.70
2006,12,13,05,15,20.90
2006,12,13,05,16,16.10
2006,12,13,05,17,25.70
2006,12,13,05,18,30.60
2006,12,13,05,19,22.50
2006,12,13,05,20,17.70
2006,12,13,05,21,24.20
2006,12,13,05,22,24.20
2006,12,13,05,23,17.70
2006,12,13,05,24,24.20
2006,12,13,05,25,19.30
2006,12,13,05,26,17.70
2006,12,13,05,27,20.90
2006,12,13,05,28,25.70
2006,12,13,05,29,30.60
2006,12,13,05,30,43.50
2006,12,13,05,31,11.30
2006,12,13,05,32,38.60
2006,12,13,05,33,20.90
2006,12,13,05,34,24.20
2006,12,13,05,35,24.20
2006,12,13,05,36,24.20
2006,12,13,05,37,27.40
2006,12,13,05,38,33.80
2006,12,13,05,39,27.40
2006,12,13,05,40,25.70
2006,12,13,05,41,17.70
2006,12,13,05,42,56.30
2006,12,13,05,43,29.00
2006,12,13,05,44,20.90
2006,12,13,05,45,27.40
2006,12,13,05,46,27.40
2006,12,13,05,47,41.80
2006,12,13,05,48,43.50
2006,12,13,05,49,20.90
2006,12,13,05,50,20.90
2006,12,13,05,51,22.50
2006,12,13,05,52,30.60
2006,12,13,05,53,30.60
2006,12,13,05,54,40.20
2006,12,13,05,55,32.20
2006,12,13,05,56,29.00
2006,12,13,05,57,35.40
2006,12,13,05,58,32.20
2006,12,13,05,59,57.90
2006,12,13,06,00,38.60
2006,12,13,06,01,29.00
2006,12,13,06,02,20.90
2006,12,13,06,03,29.00
2006,12,13,06,04,20.90
2006,12,13,06,05,20.90
2006,12,13,06,06,35.40
2006,12,13,06,07,32.20
2006,12,13,06,08,17.70
2006,12,13,06,09,30.60
2006,12,13,06,10,25.70
2006,12,13,06,11,30.60
2006,12,13,06,12,25.70
2006,12,13,06,13,43.50
2006,12,13,06,14,27.40
2006,12,13,06,15,24.20
2006,12,13,06,16,20.90
2006,12,13,06,17,24.20
2006,12,13,06,18,40.20
2006,12,13,06,19,30.60
2006,12,13,06,20,19.30
2006,12,13,06,21,19.30
2006,12,13,06,22,20.90
2006,12,13,06,23,20.90
2006,12,13,06,24,22.50
2006,12,13,06,25,16.10
2006,12,13,06,26,27.40
2006,12,13,06,27,20.90
2006,12,13,06,28,32.20
2006,12,13,06,29,20.90
2006,12,13,06,30,32.20
2006,12,13,06,31,29.00
2006,12,13,06,32,29.00
2006,12,13,06,33,24.20
2006,12,13,06,34,29.00
2006,12,13,06,35,32.20
2006,12,13,06,36,29.00
2006,12,13,06,37,32.20
2006,12,13,06,38,24.20
2006,12,13,06,39,43.50
2006,12,13,06,40,37.00
2006,12,13,06,41,33.80
2006,12,13,06,42,45.10
2006,12,13,06,43,35.40
2006,12,13,06,44,32.20
2006,12,13,06,45,33.80
2006,12,13,06,46,30.60
2006,12,13,06,47,30.60
2006,12,13,06,48,27.40
2006,12,13,06,49,43.50
2006,12,13,06,50,43.50
2006,12,13,06,51,29.00
2006,12,13,06,52,30.60
2006,12,13,06,53,30.60
2006,12,13,06,54,38.60
2006,12,13,06,55,30.60
2006,12,13,06,56,22.50
2006,12,13,06,57,25.70
2006,12,13,06,58,46.70
2006,12,13,06,59,22.50
2006,12,13,07,00,35.40
2006,12,13,07,01,20.90
2006,12,13,07,02,32.20
2006,12,13,07,03,20.90
2006,12,13,07,04,30.60
2006,12,13,07,05,30.60
2006,12,13,07,06,30.60
2006,12,13,07,07,27.40
2006,12,13,07,08,35.40
2006,12,13,07,09,35.40
2006,12,13,07,10,29.00
2006,12,13,07,11,30.60
2006,12,13,07,12,29.00
2006,12,13,07,13,20.90
2006,12,13,07,14,45.10
2006,12,13,07,15,33.80
2006,12,13,07,16,41.80
2006,12,13,07,17,33.80
2006,12,13,07,18,48.30
2006,12,13,07,19,59.50
2006,12,13,07,20,45.10
2006,12,13,07,21,59.50
2006,12,13,07,22,32.20
2006,12,13,07,23,38.60
2006,12,13,07,24,67.60
2006,12,13,07,25,62.70
2006,12,13,07,26,40.20
2006,12,13,07,27,48.30
2006,12,13,07,28,48.30
2006,12,13,07,29,45.10
2006,12,13,07,30,33.80
2006,12,13,07,31,32.20
2006,12,13,07,32,30.60
2006,12,13,07,33,27.40
2006,12,13,07,34,49.90
2006,12,13,07,35,53.10
2006,12,13,07,36,32.20
2006,12,13,07,37,29.00
2006,12,13,07,38,29.00
2006,12,13,07,39,35.40
2006,12,13,07,40,30.60
2006,12,13,07,41,41.80
2006,12,13,07,42,41.80
2006,12,13,07,43,41.80
2006,12,13,07,44,48.30
2006,12,13,07,45,37.00
2006,12,13,07,46,43.50
2006,12,13,07,47,35.40
2006,12,13,07,48,27.40
2006,12,13,07,49,32.20
2006,12,13,07,50,38.60
2006,12,13,07,51,38.60
2006,12,13,07,52,29.00
2006,12,13,07,53,22.50
2006,12,13,07,54,30.60
2006,12,13,07,55,22.50
2006,12,13,07,56,25.70
2006,12,13,07,57,43.50
2006,12,13,07,58,37.00
2006,12,13,07,59,43.50
2006,12,13,08,00,37.00
2006,12,13,08,01,32.20
2006,12,13,08,02,30.60
2006,12,13,08,03,37.00
2006,12,13,08,04,37.00
2006,12,13,08,05,29.00
2006,12,13,08,06,35.40
2006,12,13,08,07,30.60
2006,12,13,08,08,24.20
2006,12,13,08,09,35.40
2006,12,13,08,10,32.20
2006,12,13,08,11,37.00
2006,12,13,08,12,33.80
2006,12,13,08,13,45.10
2006,12,13,08,14,45.10
2006,12,13,08,15,41.80
2006,12,13,08,16,37.00
2006,12,13,08,17,46.70
2006,12,13,08,18,41.80
2006,12,13,08,19,51.50
2006,12,13,08,20,43.50
2006,12,13,08,21,27.40
2006,12,13,08,22,33.80
2006,12,13,08,23,43.50
2006,12,13,08,24,41.80
2006,12,13,08,25,35.40
2006,12,13,08,26,35.40
2006,12,13,08,27,25.70
2006,12,13,08,28,64.40
2006,12,13,08,29,40.20
2006,12,13,08,30,30.60
2006,12,13,08,31,54.70
2006,12,13,08,32,45.10
2006,12,13,08,33,27.40
2006,12,13,08,34,45.10
2006,12,13,08,35,29.00
2006,12,13,08,36,48.30
2006,12,13,08,37,45.10
2006,12,13,08,38,37.00
2006,12,13,08,39,40.20
2006,12,13,08,40,48.30
2006,12,13,08,41,45.10
2006,12,13,08,42,45.10
2006,12,13,08,43,45.10
2006,12,13,08,44,49.90
2006,12,13,08,45,32.20
2006,12,13,08,46,48.30
2006,12,13,08,47,49.90
2006,12,13,08,48,45.10
2006,12,13,08,49,53.10
2006,12,13,08,50,51.50
2006,12,13,08,51,37.00
2006,12,13,08,52,29.00
2006,12,13,08,53,43.50
2006,12,13,08,54,33.80
2006,12,13,08,55,38.60
2006,12,13,08,56,43.50
2006,12,13,08,57,41.80
2006,12,13,08,58,46.70
2006,12,13,08,59,46.70
2006,12,13,09,00,37.00
2006,12,13,09,01,30.60
2006,12,13,09,02,35.40
2006,12,13,09,03,35.40
2006,12,13,09,04,22.50
2006,12,13,09,05,40.20
2006,12,13,09,06,29.00
2006,12,13,09,07,30.60
2006,12,13,09,08,29.00
2006,12,13,09,09,35.40
2006,12,13,09,10,27.40
2006,12,13,09,11,25.70
2006,12,13,09,12,24.20
2006,12,13,09,13,24.20
2006,12,13,09,14,35.40
2006,12,13,09,15,35.40
2006,12,13,09,16,32.20
2006,12,13,09,17,46.70
2006,12,13,09,18,70.80
2006,12,13,09,19,46.70
2006,12,13,09,20,35.40
2006,12,13,09,21,37.00
2006,12,13,09,22,46.70
2006,12,13,09,23,33.80
2006,12,13,09,24,37.00
2006,12,13,09,25,37.00
2006,12,13,09,26,45.10
2006,12,13,09,27,56.30
2006,12,13,09,28,35.40
2006,12,13,09,29,45.10
2006,12,13,09,30,43.50
2006,12,13,09,31,35.40
2006,12,13,09,32,30.60
2006,12,13,09,33,30.60
2006,12,13,09,34,46.70
2006,12,13,09,35,51.50
2006,12,13,09,36,33.80
2006,12,13,09,37,33.80
2006,12,13,09,38,22.50
2006,12,13,09,39,29.00
2006,12,13,09,40,41.80
2006,12,13,09,41,40.20
2006,12,13,09,42,45.10
2006,12,13,09,43,35.40
2006,12,13,09,44,27.40
2006,12,13,09,45,30.60
2006,12,13,09,46,37.00
2006,12,13,09,47,41.80
2006,12,13,09,48,35.40
2006,12,13,09,49,51.50
2006,12,13,09,50,48.30
2006,12,13,09,51,53.10
2006,12,13,09,52,51.50
2006,12,13,09,53,53.10
2006,12,13,09,54,48.30
2006,12,13,09,55,25.70
2006,12,13,09,56,38.60
2006,12,13,09,57,53.10
2006,12,13,09,58,32.20
2006,12,13,09,59,22.50
2006,12,13,10,00,29.00
2006,12,13,10,01,30.60
2006,12,13,10,02,37.00
2006,12,13,10,03,40.20
2006,12,13,10,04,35.40
2006,12,13,10,05,43.50
2006,12,13,10,06,49.90
2006,12,13,10,07,29.00
2006,12,13,10,08,30.60
2006,12,13,10,09,51.50
2006,12,13,10,10,40.20
2006,12,13,10,11,33.80
2006,12,13,10,12,40.20
2006,12,13,10,13,48.30
2006,12,13,10,14,45.10
2006,12,13,10,15,54.70
2006,12,13,10,16,43.50
2006,12,13,10,17,46.70
2006,12,13,10,18,37.00
2006,12,13,10,19,32.20
2006,12,13,10,20,38.60
2006,12,13,10,21,40.20
2006,12,13,10,22,38.60
2006,12,13,10,23,45.10
2006,12,13,10,24,37.00
2006,12,13,10,25,32.20
2006,12,13,10,26,29.00
2006,12,13,10,27,37.00
2006,12,13,10,28,24.20
2006,12,13,10,29,45.10
2006,12,13,10,30,40.20
2006,12,13,10,31,27.40
2006,12,13,10,32,35.40
2006,12,13,10,33,43.50
2006,12,13,10,34,27.40
2006,12,13,10,35,45.10
2006,12,13,10,36,46.70
2006,12,13,10,37,46.70
2006,12,13,10,38,45.10
2006,12,13,10,39,41.80
2006,12,13,10,40,53.10
2006,12,13,10,41,45.10
2006,12,13,10,42,43.50
2006,12,13,10,43,78.80
2006,12,13,10,44,57.90
2006,12,13,10,45,53.10
2006,12,13,10,46,35.40
2006,12,13,10,47,49.90
2006,12,13,10,48,33.80
2006,12,13,10,49,32.20
2006,12,13,10,50,37.00
2006,12,13,10,51,46.70
2006,12,13,10,52,29.00
2006,12,13,10,53,43.50
2006,12,13,10,54,38.60
2006,12,13,10,55,33.80
2006,12,13,10,56,38.60
2006,12,13,10,57,45.10
2006,12,13,10,58,27.40
2006,12,13,10,59,38.60
2006,12,13,11,00,33.80
2006,12,13,11,01,45.10
2006,12,13,11,02,29.00
2006,12,13,11,03,41.80
2006,12,13,11,04,62.70
2006,12,13,11,05,62.70
2006,12,13,11,06,64.40
2006,12,13,11,07,48.30
2006,12,13,11,08,57.90
2006,12,13,11,09,40.20
2006,12,13,11,10,37.00
2006,12,13,11,11,35.40
2006,12,13,11,12,41.80
2006,12,13,11,13,24.20
2006,12,13,11,14,32.20
2006,12,13,11,15,25.70
2006,12,13,11,16,38.60
2006,12,13,11,17,32.20
2006,12,13,11,18,48.30
2006,12,13,11,19,64.40
2006,12,13,11,20,38.60
2006,12,13,11,21,37.00
2006,12,13,11,22,20.90
2006,12,13,11,23,38.60
2006,12,13,11,24,30.60
2006,12,13,11,25,37.00
2006,12,13,11,26,48.30
2006,12,13,11,27,48.30
2006,12,13,11,28,51.50
2006,12,13,11,29,53.10
2006,12,13,11,30,48.30
2006,12,13,11,31,40.20
2006,12,13,11,32,32.20
2006,12,13,11,33,38.60
2006,12,13,11,34,30.60
2006,12,13,11,35,32.20
2006,12,13,11,36,38.60
2006,12,13,11,37,64.40
2006,12,13,11,38,54.70
2006,12,13,11,39,35.40
2006,12,13,11,40,35.40
2006,12,13,11,41,37.00
2006,12,13,11,42,48.30
2006,12,13,11,43,37.00
2006,12,13,11,44,40.20
2006,12,13,11,45,53.10
2006,12,13,11,46,38.60
2006,12,13,11,47,43.50
2006,12,13,11,48,29.00
2006,12,13,11,49,38.60
2006,12,13,11,50,45.10
2006,12,13,11,51,43.50
2006,12,13,11,52,45.10
2006,12,13,11,53,35.40
2006,12,13,11,54,53.10
2006,12,13,11,55,25.70
2006,12,13,11,56,35.40
2006,12,13,11,57,35.40
2006,12,13,11,58,24.20
2006,12,13,11,59,37.00
2006,12,13,12,00,41.80
2006,12,13,12,01,35.40
2006,12,13,12,02,40.20
2006,12,13,12,03,40.20
2006,12,13,12,04,30.60
2006,12,13,12,05,32.20
2006,12,13,12,06,43.50
2006,12,13,12,07,53.10
2006,12,13,12,08,56.30
2006,12,13,12,09,53.10
2006,12,13,12,10,40.20
2006,12,13,12,11,41.80
2006,12,13,12,12,38.60
2006,12,13,12,13,46.70
2006,12,13,12,14,49.90
2006,12,13,12,15,35.40
2006,12,13,12,16,43.50
2006,12,13,12,17,43.50
2006,12,13,12,18,46.70
2006,12,13,12,19,38.60
2006,12,13,12,20,45.10
2006,12,13,12,21,40.20
2006,12,13,12,22,45.10
2006,12,13,12,23,41.80
2006,12,13,12,24,38.60
2006,12,13,12,25,46.70
2006,12,13,12,26,33.80
2006,12,13,12,27,38.60
2006,12,13,12,28,30.60
2006,12,13,12,29,41.80
2006,12,13,12,30,43.50
2006,12,13,12,31,38.60
2006,12,13,12,32,32.20
2006,12,13,12,33,46.70
2006,12,13,12,34,32.20
2006,12,13,12,35,49.90
2006,12,13,12,36,38.60
2006,12,13,12,37,40.20
2006,12,13,12,38,46.70
2006,12,13,12,39,40.20
2006,12,13,12,40,49.90
2006,12,13,12,41,38.60
2006,12,13,12,42,35.40
2006,12,13,12,43,49.90
2006,12,13,12,44,41.80
2006,12,13,12,45,30.60
2006,12,13,12,46,35.40
2006,12,13,12,47,27.40
2006,12,13,12,48,32.20
2006,12,13,12,49,30.60
2006,12,13,12,50,25.70
2006,12,13,12,51,32.20
2006,12,13,12,52,51.50
2006,12,13,12,53,27.40
2006,12,13,12,54,30.60
2006,12,13,12,55,35.40
2006,12,13,12,56,38.60
2006,12,13,12,57,48.30
2006,12,13,12,58,38.60
2006,12,13,12,59,46.70
2006,12,13,13,00,37.00
2006,12,13,13,01,45.10
2006,12,13,13,02,35.40
2006,12,13,13,03,24.20
2006,12,13,13,04,29.00
2006,12,13,13,05,48.30
2006,12,13,13,06,29.00
2006,12,13,13,07,45.10
2006,12,13,13,08,54.70
2006,12,13,13,09,40.20
2006,12,13,13,10,30.60
2006,12,13,13,11,51.50
2006,12,13,13,12,38.60
2006,12,13,13,13,51.50
2006,12,13,13,14,38.60
2006,12,13,13,15,49.90
2006,12,13,13,16,30.60
2006,12,13,13,17,35.40
2006,12,13,13,18,27.40
2006,12,13,13,19,24.20
2006,12,13,13,20,32.20
2006,12,13,13,21,22.50
2006,12,13,13,22,43.50
2006,12,13,13,23,45.10
2006,12,13,13,24,35.40
2006,12,13,13,25,35.40
2006,12,13,13,26,29.00
2006,12,13,13,27,27.40
2006,12,13,13,28,24.20
2006,12,13,13,29,33.80
2006,12,13,13,30,41.80
2006,12,13,13,31,38.60
2006,12,13,13,32,29.00
2006,12,13,13,33,30.60
2006,12,13,13,34,33.80
2006,12,13,13,35,24.20
2006,12,13,13,36,20.90
2006,12,13,13,37,24.20
2006,12,13,13,38,32.20
2006,12,13,13,39,33.80
2006,12,13,13,40,53.10
2006,12,13,13,41,40.20
2006,12,13,13,42,53.10
2006,12,13,13,43,27.40
2006,12,13,13,44,35.40
2006,12,13,13,45,24.20
2006,12,13,13,46,53.10
2006,12,13,13,47,45.10
2006,12,13,13,48,33.80
2006,12,13,13,49,32.20
2006,12,13,13,50,57.90
2006,12,13,13,51,53.10
2006,12,13,13,52,51.50
2006,12,13,13,53,37.00
2006,12,13,13,54,40.20
2006,12,13,13,55,27.40
2006,12,13,13,56,53.10
2006,12,13,13,57,37.00
2006,12,13,13,58,37.00
2006,12,13,13,59,35.40
2006,12,13,14,00,43.50
2006,12,13,14,01,32.20
2006,12,13,14,02,49.90
2006,12,13,14,03,32.20
2006,12,13,14,04,46.70
2006,12,13,14,05,29.00
2006,12,13,14,06,41.80
2006,12,13,14,07,29.00
2006,12,13,14,08,37.00
2006,12,13,14,09,38.60
2006,12,13,14,10,33.80
2006,12,13,14,11,32.20
2006,12,13,14,12,27.40
2006,12,13,14,13,24.20
2006,12,13,14,14,24.20
2006,12,13,14,15,30.60
2006,12,13,14,16,25.70
2006,12,13,14,17,11.30
2006,12,13,14,18,43.50
2006,12,13,14,19,27.40
2006,12,13,14,20,35.40
2006,12,13,14,21,29.00
2006,12,13,14,22,27.40
2006,12,13,14,23,25.70
2006,12,13,14,24,27.40
2006,12,13,14,25,27.40
2006,12,13,14,26,27.40
2006,12,13,14,27,30.60
2006,12,13,14,28,30.60
2006,12,13,14,29,35.40
2006,12,13,14,30,12.90
2006,12,13,14,31,27.40
2006,12,13,14,32,35.40
2006,12,13,14,33,29.00
2006,12,13,14,34,35.40
2006,12,13,14,35,38.60
2006,12,13,14,36,29.00
2006,12,13,14,37,20.90
2006,12,13,14,38,25.70
2006,12,13,14,39,22.50
2006,12,13,14,40,33.80
2006,12,13,14,41,20.90
2006,12,13,14,42,38.60
2006,12,13,14,43,29.00
2006,12,13,14,44,24.20
2006,12,13,14,45,29.00
2006,12,13,14,46,41.80
2006,12,13,14,47,37.00
2006,12,13,14,48,27.40
2006,12,13,14,49,43.50
2006,12,13,14,50,40.20
2006,12,13,14,51,20.90
2006,12,13,14,52,20.90
2006,12,13,14,53,29.00
2006,12,13,14,54,20.90
2006,12,13,14,55,29.00
2006,12,13,14,56,19.30
2006,12,13,14,57,16.10
2006,12,13,14,58,17.70
2006,12,13,14,59,25.70
2006,12,13,15,00,25.70
2006,12,13,15,01,41.80
2006,12,13,15,02,30.60
2006,12,13,15,03,40.20
2006,12,13,15,04,33.80
2006,12,13,15,05,48.30
2006,12,13,15,06,41.80
2006,12,13,15,07,37.00
2006,12,13,15,08,35.40
2006,12,13,15,09,30.60
2006,12,13,15,10,27.40
2006,12,13,15,11,30.60
2006,12,13,15,12,38.60
2006,12,13,15,13,19.30
2006,12,13,15,14,37.00
2006,12,13,15,15,22.50
2006,12,13,15,16,24.20
2006,12,13,15,17,24.20
2006,12,13,15,18,27.40
2006,12,13,15,19,33.80
2006,12,13,15,20,37.00
2006,12,13,15,21,20.90
2006,12,13,15,22,25.70
2006,12,13,15,23,29.00
2006,12,13,15,24,27.40
2006,12,13,15,25,25.70
2006,12,13,15,26,20.90
2006,12,13,15,27,17.70
2006,12,13,15,28,22.50
2006,12,13,15,29,33.80
2006,12,13,15,30,24.20
2006,12,13,15,31,22.50
2006,12,13,15,32,12.90
2006,12,13,15,33,17.70
2006,12,13,15,34,22.50
2006,12,13,15,35,33.80
2006,12,13,15,36,22.50
2006,12,13,15,37,30.60
2006,12,13,15,38,11.30
2006,12,13,15,39,19.30
2006,12,13,15,40,24.20
2006,12,13,15,41,22.50
2006,12,13,15,42,17.70
2006,12,13,15,43,16.10
2006,12,13,15,44,24.20
2006,12,13,15,45,25.70
2006,12,13,15,46,14.50
2006,12,13,15,47,20.90
2006,12,13,15,48,11.30
2006,12,13,15,49,16.10
2006,12,13,15,50,12.90
2006,12,13,15,51,19.30
2006,12,13,15,52,20.90
2006,12,13,15,53,11.30
2006,12,13,15,54,9.60
2006,12,13,15,55,9.60
2006,12,13,15,56,16.10
2006,12,13,15,57,8.10
2006,12,13,15,58,11.30
2006,12,13,15,59,19.30
2006,12,13,16,00,9.60
2006,12,13,16,01,8.10
2006,12,13,16,02,16.10
2006,12,13,16,03,8.10
2006,12,13,16,04,19.30
2006,12,13,16,05,14.50
2006,12,13,16,06,11.30
2006,12,13,16,07,11.30
2006,12,13,16,08,9.60
2006,12,13,16,09,9.60
2006,12,13,16,10,8.10
2006,12,13,16,11,11.30
2006,12,13,16,12,8.10
2006,12,13,16,13,8.10
2006,12,13,16,14,9.60
2006,12,13,16,15,11.30
2006,12,13,16,16,8.10
2006,12,13,16,17,11.30
2006,12,13,16,18,11.30
2006,12,13,16,19,9.60
2006,12,13,16,20,25.70
2006,12,13,16,21,8.10
2006,12,13,16,22,6.40
2006,12,13,16,23,9.60
2006,12,13,16,24,27.40
2006,12,13,16,25,16.10
2006,12,13,16,26,16.10
2006,12,13,16,27,16.10
2006,12,13,16,28,17.70
2006,12,13,16,29,19.30
2006,12,13,16,30,12.90
2006,12,13,16,31,11.30
2006,12,13,16,32,17.70
2006,12,13,16,33,9.60
2006,12,13,16,34,11.30
2006,12,13,16,35,6.40
2006,12,13,16,36,6.40
2006,12,13,16,37,4.80
2006,12,13,16,38,6.40
2006,12,13,16,39,9.60
2006,12,13,16,40,14.50
2006,12,13,16,41,6.40
2006,12,13,16,42,20.90
2006,12,13,16,43,9.60
2006,12,13,16,44,11.30
2006,12,13,16,45,20.90
2006,12,13,16,46,8.10
2006,12,13,16,47,9.60
2006,12,13,16,48,14.50
2006,12,13,16,49,14.50
2006,12,13,16,50,25.70
2006,12,13,16,51,29.00
2006,12,13,16,52,29.00
2006,12,13,16,53,27.40
2006,12,13,16,54,11.30
2006,12,13,16,55,20.90
2006,12,13,16,56,24.20
2006,12,13,16,57,20.90
2006,12,13,16,58,11.30
2006,12,13,16,59,16.10
2006,12,13,17,00,22.50
2006,12,13,17,01,19.30
2006,12,13,17,02,22.50
2006,12,13,17,03,11.30
2006,12,13,17,04,19.30
2006,12,13,17,05,17.70
2006,12,13,17,06,25.70
2006,12,13,17,07,25.70
2006,12,13,17,08,19.30
2006,12,13,17,09,20.90
2006,12,13,17,10,9.60
2006,12,13,17,11,17.70
2006,12,13,17,12,9.60
2006,12,13,17,13,19.30
2006,12,13,17,14,17.70
2006,12,13,17,15,9.60
2006,12,13,17,16,22.50
2006,12,13,17,17,16.10
2006,12,13,17,18,11.30
2006,12,13,17,19,11.30
2006,12,13,17,20,14.50
2006,12,13,17,21,8.10
2006,12,13,17,22,11.30
2006,12,13,17,23,11.30
2006,12,13,17,24,8.10
2006,12,13,17,25,4.80
2006,12,13,17,26,9.60
2006,12,13,17,27,16.10